Location: Newark
(25.3833°N, 97.4000°E)
Time: 06:29:07
(UTC+00:00)

Hubble Space Telescope - Visible Passes

Search period start: 07 December 2019 00:00
Search period end: 17 December 2019 00:00
Orbit: 536 x 540 km, 28.5° (Epoch: 06 December)

Date Brightness Start Highest point End Pass type
(mag) Time Alt. Az. Time Alt. Az. Time Alt. Az.
09 Dec 3.2 23:34:04 10° SSW 23:37:23 23° SSE 23:40:41 10° E visible
10 Dec 2.7 23:23:06 10° SW 23:26:44 30° SSE 23:30:21 10° E visible
11 Dec 2.1 23:12:15 10° SW 23:16:05 38° SSE 23:19:57 10° E visible
12 Dec 3.9 21:25:59 11° SE 21:25:59 11° SE 21:26:26 10° SE visible
12 Dec 1.6 23:01:28 10° SW 23:05:28 48° SSE 23:09:28 10° E visible
13 Dec 1.2 22:52:06 20° WSW 22:54:50 61° SSE 22:58:56 10° E visible
14 Dec 0.8 22:42:39 36° WSW 22:44:15 75° SSE 22:48:23 10° ENE visible
15 Dec 0.6 22:33:04 65° WSW 22:33:39 89° SSE 22:37:48 10° ENE visible
16 Dec 0.8 22:23:22 73° NE 22:23:22 73° NE 22:27:13 10° ENE visible
